When you browse on this site, cookies collect data to enhance your experience and personalize the content and advertising you see.
Visit our Privacy Policy to learn more. By continuing to use the site, you agree to this use of cookies and data.
  • In Hungary
  • List of Countries
  • For 7 days
  • Water Temperature
  • Satellite Maps
  • Weather Map
  • News
  • Weather Widgets
  • user-avatar
    Login

    Hourly Weather Inverness

    Today, 22 January, Tuesday

    Time Temperature Precipitation Wind Pressure Humidity
    00:00 +1°C° 0 mm 2 mps 743 mmHg 89%
    01:00 0°C° 0 mm 3 mps 743 mmHg 87%
    02:00 0°C° 0 mm 3 mps 743 mmHg 86%
    03:00 0°C° 0 mm 3 mps 742 mmHg 85%
    04:00 -1°C° 0 mm 3 mps 742 mmHg 86%
    05:00 -1°C° 0 mm 3 mps 742 mmHg 87%
    06:00 -2°C° 0 mm 3 mps 742 mmHg 88%
    07:00 -2°C° 0 mm 2 mps 742 mmHg 88%
    08:00 -3°C° 0 mm 2 mps 742 mmHg 88%
    09:00 -3°C° 0 mm 2 mps 742 mmHg 88%
    10:00 -2°C° 0 mm 2 mps 742 mmHg 85%
    11:00 -1°C° 0 mm 2 mps 741 mmHg 82%
    12:00 +2°C° 0 mm 2 mps 741 mmHg 79%
    13:00 +2°C° 0 mm 2 mps 741 mmHg 81%
    14:00 +2°C° 0 mm 2 mps 741 mmHg 83%
    15:00 +1°C° 0 mm 2 mps 741 mmHg 85%
    16:00 +1°C° 0 mm 2 mps 741 mmHg 87%
    17:00 -1°C° 0 mm 2 mps 742 mmHg 89%
    18:00 -2°C° 0 mm 2 mps 742 mmHg 91%
    19:00 -3°C° 0 mm 2 mps 742 mmHg 91%
    20:00 -3°C° 0 mm 2 mps 743 mmHg 90%
    21:00 -3°C° 0 mm 2 mps 743 mmHg 90%
    22:00 -3°C° 0 mm 2 mps 743 mmHg 89%
    23:00 -3°C° 0 mm 2 mps 744 mmHg 89%

    Tomorrow, 23 January, Wednesday

    Time Temperature Precipitation Wind Pressure Humidity
    00:00 -3°C° 0 mm 2 mps 744 mmHg 89%
    01:00 -3°C° 0 mm 2 mps 744 mmHg 88%
    02:00 -3°C° 0 mm 2 mps 745 mmHg 88%
    03:00 -4°C° 0 mm 3 mps 745 mmHg 87%
    04:00 -4°C° 0 mm 3 mps 745 mmHg 88%
    05:00 -4°C° 0 mm 3 mps 746 mmHg 88%
    06:00 -4°C° 0 mm 3 mps 746 mmHg 88%
    07:00 -4°C° 0 mm 3 mps 746 mmHg 87%
    08:00 -4°C° 0 mm 3 mps 747 mmHg 87%
    09:00 -4°C° 0 mm 3 mps 747 mmHg 87%
    10:00 -2°C° 0 mm 3 mps 748 mmHg 83%
    11:00 0°C° 0 mm 3 mps 748 mmHg 79%
    12:00 +1°C° 0 mm 3 mps 748 mmHg 76%
    13:00 +1°C° 0 mm 3 mps 748 mmHg 77%
    14:00 +1°C° 0 mm 3 mps 748 mmHg 78%
    15:00 +1°C° 0 mm 3 mps 748 mmHg 79%
    16:00 +1°C° 0 mm 3 mps 748 mmHg 82%
    17:00 0°C° 0 mm 3 mps 749 mmHg 85%
    18:00 -1°C° 0 mm 3 mps 749 mmHg 88%
    19:00 0°C° 0 mm 3 mps 749 mmHg 89%
    20:00 0°C° 0 mm 3 mps 749 mmHg 90%
    21:00 0°C° 0 mm 3 mps 750 mmHg 91%
    22:00 0°C° 0 mm 3 mps 750 mmHg 91%
    23:00 0°C° 0 mm 3 mps 750 mmHg 92%

    Day after tomorrow, 24 January, Thursday

    Time Temperature Precipitation Wind Pressure Humidity
    00:00 0°C° 0 mm 3 mps 750 mmHg 93%
    01:00 0°C° 0 mm 3 mps 750 mmHg 92%
    02:00 0°C° 0 mm 3 mps 750 mmHg 92%
    03:00 +1°C° 0 mm 3 mps 750 mmHg 92%
    04:00 +1°C° 0.1 mm 3 mps 750 mmHg 92%
    05:00 +1°C° 0.1 mm 3 mps 750 mmHg 93%
    06:00 +2°C° 0.1 mm 2 mps 750 mmHg 93%
    07:00 +2°C° 0 mm 2 mps 751 mmHg 93%
    08:00 +1°C° 0 mm 2 mps 751 mmHg 92%
    09:00 +1°C° 0 mm 2 mps 752 mmHg 91%
    10:00 +2°C° 0 mm 2 mps 752 mmHg 88%
    11:00 +3°C° 0 mm 1 mps 752 mmHg 86%
    12:00 +4°C° 0 mm 1 mps 753 mmHg 83%
    13:00 +4°C° 0 mm 1 mps 753 mmHg 84%
    14:00 +4°C° 0 mm 1 mps 753 mmHg 85%
    15:00 +4°C° 0 mm 1 mps 753 mmHg 85%
    16:00 +3°C° 0 mm 1 mps 754 mmHg 87%
    17:00 +2°C° 0 mm 1 mps 754 mmHg 89%
    18:00 +1°C° 0 mm 1 mps 755 mmHg 90%
    19:00 +1°C° 0 mm 1 mps 755 mmHg 90%
    20:00 +1°C° 0 mm 1 mps 755 mmHg 90%
    21:00 +1°C° 0 mm 1 mps 756 mmHg 90%
    22:00 +1°C° 0 mm 1 mps 756 mmHg 87%
    23:00 +2°C° 0 mm 1 mps 756 mmHg 84%

    25 January, Friday

    Time Temperature Precipitation Wind Pressure Humidity
    00:00 +2°C° 0 mm 1 mps 756 mmHg 82%
    01:00 +2°C° 0.2 mm 2 mps 755 mmHg 83%
    02:00 +2°C° 0.2 mm 2 mps 755 mmHg 83%
    03:00 +2°C° 0.2 mm 2 mps 755 mmHg 84%
    04:00 +2°C° 0.2 mm 3 mps 754 mmHg 85%
    05:00 +2°C° 0.2 mm 3 mps 754 mmHg 87%
    06:00 +2°C° 0.2 mm 3 mps 754 mmHg 89%
    07:00 +3°C° 0 mm 3 mps 754 mmHg 89%
    08:00 +3°C° 0 mm 4 mps 753 mmHg 90%
    09:00 +4°C° 0 mm 4 mps 753 mmHg 91%
    10:00 +4°C° 0.1 mm 4 mps 752 mmHg 90%
    11:00 +5°C° 0.1 mm 5 mps 752 mmHg 89%
    12:00 +5°C° 0.1 mm 5 mps 751 mmHg 88%
    13:00 +6°C° 0.2 mm 5 mps 751 mmHg 88%
    14:00 +6°C° 0.2 mm 5 mps 750 mmHg 88%
    15:00 +6°C° 0.2 mm 5 mps 750 mmHg 88%
    16:00 +5°C° 1 mm 4 mps 750 mmHg 90%
    17:00 +4°C° 1 mm 3 mps 749 mmHg 93%
    18:00 +4°C° 1 mm 2 mps 749 mmHg 96%
    19:00 +4°C° 0.6 mm 2 mps 750 mmHg 95%
    20:00 +4°C° 0.6 mm 2 mps 750 mmHg 95%
    21:00 +3°C° 0.6 mm 2 mps 750 mmHg 95%
    22:00 +3°C° 0.1 mm 2 mps 750 mmHg 94%
    23:00 +2°C° 0.1 mm 2 mps 750 mmHg 93%

    26 January, Saturday

    Time Temperature Precipitation Wind Pressure Humidity
    00:00 +2°C° 0.1 mm 2 mps 750 mmHg 92%
    01:00 +1°C° 0 mm 2 mps 750 mmHg 91%
    02:00 +1°C° 0 mm 2 mps 750 mmHg 90%
    03:00 +1°C° 0 mm 2 mps 751 mmHg 90%
    04:00 0°C° 0 mm 3 mps 750 mmHg 89%
    05:00 0°C° 0 mm 3 mps 750 mmHg 88%
    06:00 0°C° 0 mm 3 mps 750 mmHg 87%
    07:00 0°C° 0 mm 3 mps 750 mmHg 87%
    08:00 0°C° 0 mm 3 mps 750 mmHg 87%
    09:00 -1°C° 0 mm 4 mps 750 mmHg 87%
    10:00 0°C° 0 mm 4 mps 750 mmHg 84%
    11:00 +1°C° 0 mm 5 mps 750 mmHg 81%
    12:00 +2°C° 0 mm 5 mps 750 mmHg 78%
    13:00 +2°C° 0.1 mm 5 mps 749 mmHg 78%
    14:00 +2°C° 0.1 mm 5 mps 748 mmHg 79%
    15:00 +2°C° 0.1 mm 5 mps 748 mmHg 80%
    16:00 +1°C° 0.1 mm 5 mps 747 mmHg 81%
    17:00 +1°C° 0.1 mm 5 mps 747 mmHg 82%
    18:00 0°C° 0.1 mm 4 mps 746 mmHg 83%
    19:00 0°C° 0 mm 4 mps 746 mmHg 83%
    20:00 0°C° 0 mm 4 mps 745 mmHg 83%
    21:00 +1°C° 0 mm 4 mps 745 mmHg 83%
    22:00 0°C° 0 mm 4 mps 745 mmHg 84%
    23:00 0°C° 0 mm 4 mps 745 mmHg 85%

    27 January, Sunday

    Time Temperature Precipitation Wind Pressure Humidity
    00:00 0°C° 0 mm 4 mps 745 mmHg 86%
    01:00 0°C° 0 mm 4 mps 745 mmHg 86%
    02:00 0°C° 0 mm 4 mps 745 mmHg 85%
    03:00 0°C° 0 mm 4 mps 745 mmHg 84%
    04:00 0°C° 0 mm 4 mps 746 mmHg 84%
    05:00 0°C° 0 mm 4 mps 746 mmHg 84%
    06:00 0°C° 0 mm 4 mps 746 mmHg 85%
    07:00 -1°C° 0 mm 5 mps 747 mmHg 84%
    08:00 -1°C° 0 mm 5 mps 748 mmHg 84%
    09:00 -1°C° 0 mm 5 mps 748 mmHg 84%
    10:00 0°C° 0 mm 5 mps 749 mmHg 81%
    11:00 -1°C° 0 mm 6 mps 749 mmHg 78%
    12:00 +1°C° 0 mm 6 mps 750 mmHg 74%
    13:00 +1°C° 0.1 mm 6 mps 750 mmHg 74%
    14:00 -1°C° 0.1 mm 6 mps 751 mmHg 74%
    15:00 -1°C° 0.1 mm 6 mps 751 mmHg 74%
    16:00 0°C° 0 mm 5 mps 751 mmHg 76%
    17:00 -1°C° 0 mm 5 mps 752 mmHg 78%
    18:00 -1°C° 0 mm 5 mps 752 mmHg 81%
    19:00 -1°C° 0 mm 5 mps 753 mmHg 82%
    20:00 -1°C° 0 mm 5 mps 753 mmHg 83%
    21:00 -1°C° 0 mm 4 mps 753 mmHg 84%
    22:00 -1°C° 0 mm 4 mps 754 mmHg 84%
    23:00 -2°C° 0 mm 4 mps 755 mmHg 85%
    Show more